Ana Sayfa
METAR-TAF:

METAR-TAF

Havaalanları :

Wharton, Teksas, Amerika Birleşik Devletleri

Enlem: 29-15-15N, Boylam: 096-09-15W, yükseklik: 31 m

Güncel hava durumu gözlemi

Rapor saat 20:35 UTC de 16 dakika önce yapıldı.
Sakin rüzgar
Sıcaklık 17°C
Nem 34%
Basınç 1021 hPa
Görüş mesafesi: 16.1 km
Açık gökyüzü

METAR: KARM 162035Z AUTO 00000KT 10SM CLR 17/01 A3015 RMK AO2 T01660014

Saat: 14:51 (20:51 UTC)


TAF: eksik

4.000'den fazla havaalanı için hava durumu gözlemleri ve tahminleri (METAR ve TAF raporları).

Kullanılabilir istasyonlar harita üzerinde sarı ve kırmızı noktalarla gösterilir.

İstasyonun adını görmek için fareyi noktanın üzerinde gezdirin.

Sonrasında hava gözlem ve tahminlerini görmek için tıklayın.

Haritayı değiştirmek için: yaklaştırmak için siyah artı işaretli yeşil düğmeye ve uzaklaştırmak için de eksi işaretli düğmeye hızla tıklayın; bitişik haritalar için yeşil okları kullanın.


METAR-TAF: